Theta_e
354 364 367 366 365 364 364 364 362 361 361 361 361 362 362 362 362 361 362 363 364 363 362 359 359 356 354 356 357 358 359 358 357 353 352 352 351 351 352 352 350 347 350
357 363 366 366 364 364 364 364 361 360 361 361 361 362 362 362 362 361 362 363 364 363 360 359 358 356 354 356 356 356 357 358 357 355 352 351 350 352 351 350 351 348 350
356 362 364 365 364 364 364 363 361 360 361 361 361 361 362 363 362 361 361 362 362 361 359 358 356 354 354 355 355 355 355 356 356 356 353 347 346 349 349 348 349 349 349
356 359 362 365 365 363 363 362 360 359 361 361 361 361 362 362 363 362 361 362 362 358 357 355 354 354 353 354 353 352 354 355 356 355 350 351 343 350 349 348 347 347 347
354 358 362 365 365 364 364 362 360 360 361 361 361 361 361 362 362 362 361 361 361 358 357 355 355 356 355 355 355 355 356 357 356 355 350 349 339 350 351 351 348 346 346
353 358 363 364 365 364 363 362 360 360 361 361 361 362 361 362 362 362 361 360 359 358 355 355 357 357 356 356 356 356 356 356 355 345 343 343 341 355 355 353 354 350 349
353 358 361 364 364 364 363 362 361 361 360 361 361 362 361 361 361 361 361 359 358 357 356 356 357 356 356 355 355 355 354 353 347 343 342 344 345 353 356 356 356 354 351
355 356 360 364 363 363 362 362 361 360 360 360 361 361 361 360 360 360 359 359 358 357 357 357 357 356 355 354 353 352 351 351 344 340 338 342 349 355 357 355 354 355 354
354 354 357 360 362 363 362 361 360 360 359 359 359 360 360 359 359 359 358 359 359 357 355 356 356 355 354 354 353 352 352 351 342 341 339 341 354 357 359 357 356 356 356
351 352 353 356 358 359 359 361 360 360 360 359 359 359 359 359 359 358 356 358 358 357 355 355 355 354 354 352 352 352 353 351 343 340 337 334 354 358 359 358 358 357 356
349 348 350 352 354 356 357 360 360 361 360 359 359 359 356 352 354 355 355 357 357 356 355 354 354 354 353 352 352 352 352 343 339 337 336 343 354 357 358 357 357 357 357
344 345 347 347 349 351 356 356 356 357 356 355 355 355 351 346 349 352 353 356 356 356 355 354 353 353 353 342 339 350 343 340 336 332 327 345 353 356 356 355 353 353 353
340 345 345 344 344 343 349 352 353 353 353 352 351 351 346 346 348 348 345 348 348 354 348 349 348 346 342 338 334 330 338 335 331 331 332 349 351 355 355 352 350 350 350
335 338 345 343 342 339 348 346 344 346 345 345 345 348 344 341 341 342 343 344 346 346 344 341 342 342 340 337 334 332 333 332 333 333 333 351 351 354 355 354 352 351 350
337 336 342 342 339 341 345 341 342 342 342 342 342 347 342 340 341 341 343 343 344 345 345 340 340 340 340 339 337 335 335 335 336 337 338 354 351 351 354 356 355 353 353
338 336 340 340 339 341 344 341 342 343 343 344 343 347 345 343 341 343 341 344 343 345 343 341 340 339 342 342 341 341 342 343 344 345 345 345 351 349 351 354 355 354 354
336 338 339 341 340 336 338 344 345 345 345 346 345 347 347 346 343 349 343 343 347 347 344 342 344 347 346 346 344 344 345 345 346 344 345 345 346 351 350 351 352 354 354
332 334 340 347 341 340 337 337 340 341 348 348 349 348 348 351 352 353 349 352 349 347 345 345 344 344 345 345 343 346 347 348 347 343 345 346 347 347 350 353 353 353 354
330 333 334 336 339 339 336 336 336 335 336 352 352 353 350 352 353 351 351 349 349 349 346 340 332 333 343 344 341 342 337 337 336 340 336 335 336 337 341 349 352 351 352
328 329 332 334 336 337 335 334 334 332 333 349 351 355 353 353 352 350 351 349 349 347 342 338 330 331 343 339 343 337 334 334 331 334 333 337 336 336 336 336 336 340 349
322 326 328 329 331 336 335 331 330 329 336 339 353 355 355 355 352 346 344 343 347 347 344 345 342 341 342 337 332 327 327 329 324 325 331 325 326 328 329 329 329 335 344
321 323 327 330 335 333 335 333 328 327 337 343 353 350 354 352 342 336 337 334 344 343 339 341 340 336 333 330 323 319 315 314 317 321 321 322 320 323 328 327 328 334 340
319 325 328 330 335 328 329 329 327 325 334 325 345 349 348 349 347 342 339 346 346 344 339 339 339 333 327 327 326 316 309 308 312 315 318 321 321 322 324 326 329 331 335
320 326 327 328 335 337 341 336 331 336 338 342 343 347 347 340 330 347 348 347 346 338 336 334 341 335 331 326 322 322 319 316 311 310 314 318 321 324 324 324 322 326 331
323 326 328 336 340 344 343 344 340 338 339 342 342 340 342 347 348 351 348 346 342 335 331 330 327 334 331 325 319 317 315 314 316 313 309 311 315 319 320 317 317 321 321
319 319 320 336 338 342 345 344 341 334 334 330 334 334 338 339 338 341 342 340 334 334 331 331 329 329 329 326 323 320 318 315 312 311 309 309 312 314 315 318 318 316 320
Wind_Speed
8 13 18 18 19 18 19 18 18 17 17 17 16 15 15 16 16 17 17 15 15 14 13 12 13 13 13 12 12 11 11 11 10 12 12 13 13 11 9 8 6 9 9
17 13 19 19 19 19 18 18 18 17 17 17 17 15 14 15 15 15 15 15 14 13 13 12 11 12 12 11 9 8 8 8 7 8 9 8 9 12 10 11 12 8 9
15 13 16 20 21 21 19 18 18 17 17 17 17 16 15 15 14 14 14 14 14 13 12 11 10 11 11 10 7 6 6 6 5 4 3 3 3 8 11 10 9 8 7
16 12 14 19 19 20 19 18 18 18 18 17 17 16 15 15 15 14 14 13 13 13 12 11 10 10 10 9 6 3 3 4 3 3 2 4 6 8 9 10 7 6 6
16 11 12 18 18 17 18 18 17 18 17 18 17 16 15 14 14 14 14 13 13 12 11 11 10 9 9 8 5 1 2 4 5 7 5 7 5 9 10 10 8 6 5
14 11 17 18 17 17 17 17 16 16 17 18 17 16 15 14 13 13 13 13 12 12 11 12 10 9 8 7 4 2 2 5 8 5 5 5 8 12 11 10 8 8 7
14 11 12 20 20 19 18 18 18 17 16 17 16 16 15 15 13 13 13 12 11 10 10 11 10 9 8 6 4 3 3 6 5 6 5 3 7 14 12 10 10 9 7
17 14 12 17 17 20 20 18 18 17 16 16 16 15 15 14 14 13 12 11 11 10 9 9 9 8 7 6 5 4 5 6 6 6 3 5 8 15 14 12 9 8 8
15 13 8 9 14 16 18 19 18 16 15 15 15 14 13 13 13 12 11 10 10 9 9 9 9 8 8 8 7 7 7 8 5 4 8 1 8 12 14 13 12 11 10
12 12 10 9 10 10 10 16 18 18 16 14 15 14 13 12 11 11 11 10 10 10 9 10 9 9 9 9 9 9 10 11 6 6 6 3 13 13 14 14 13 12 12
13 9 7 7 7 8 9 11 13 16 16 15 14 14 11 5 7 8 8 10 11 11 11 10 10 10 9 10 10 11 12 4 5 5 4 9 15 16 16 15 14 13 13
8 15 11 9 8 9 9 11 8 9 7 7 7 9 6 7 7 10 10 12 13 12 11 11 10 10 9 4 4 11 5 5 5 6 4 12 17 19 17 16 15 15 14
4 9 16 13 8 8 8 6 4 4 5 5 9 8 6 6 7 7 5 6 5 11 5 7 6 5 6 5 5 5 6 5 4 5 7 11 17 17 17 16 15 14 13
7 8 7 15 16 9 8 7 6 5 6 6 7 9 7 4 5 6 5 7 7 6 7 6 5 6 7 7 7 6 6 5 5 5 6 13 14 15 13 13 14 15 15
9 6 3 3 3 7 13 8 7 5 4 5 5 7 6 5 5 7 6 7 7 6 6 6 6 6 8 8 8 7 8 8 8 4 3 10 14 16 17 17 16 16 16
16 2 4 5 5 8 3 7 7 5 7 7 7 8 10 7 6 5 6 7 5 6 6 5 7 7 7 6 6 9 7 6 7 6 4 5 12 15 16 16 18 18 19
10 9 8 3 5 6 7 8 3 7 8 8 9 11 12 9 7 6 5 4 5 6 6 6 8 5 4 4 6 5 3 4 5 7 5 4 5 11 15 17 19 20 19
13 13 10 7 5 6 6 7 2 8 5 9 10 11 14 10 8 5 4 3 5 4 3 4 3 4 2 1 2 4 5 3 7 4 3 3 4 4 7 14 15 18 19
10 11 9 9 6 7 7 6 3 8 11 14 7 11 14 13 11 7 5 4 3 1 3 5 9 12 5 4 3 7 5 3 3 2 5 6 6 5 4 5 10 14 17
12 10 10 7 8 9 7 1 5 7 8 24 9 8 15 12 10 6 6 6 4 5 4 6 6 11 7 6 5 3 3 4 4 4 6 5 5 6 5 4 4 4 10
9 8 8 10 6 5 3 6 5 5 3 18 7 8 13 10 6 3 2 3 3 3 5 6 8 9 6 4 1 4 3 4 4 4 2 2 5 6 6 5 4 2 0
12 12 10 11 13 8 7 3 3 6 4 6 18 7 10 10 9 2 5 4 6 2 2 5 4 2 2 0 3 2 3 5 4 3 3 3 6 5 7 8 6 6 5
11 10 11 14 18 11 8 8 6 2 6 11 15 2 4 9 12 10 23 11 7 3 5 6 6 6 4 2 4 5 1 5 2 2 4 4 6 5 6 6 7 6 6
9 9 9 8 9 14 18 18 20 17 13 9 5 2 5 4 8 10 10 8 5 3 4 4 5 4 4 4 2 4 3 4 4 4 3 4 4 5 6 4 5 6 5
15 14 11 10 9 8 4 3 3 3 2 3 0 6 4 6 5 4 5 6 5 4 4 4 3 5 4 4 4 3 1 1 4 4 4 4 3 4 5 5 5 5 6
8 7 7 7 5 7 7 6 6 6 4 6 5 4 3 2 3 1 4 4 5 6 6 4 3 3 4 3 3 3 4 3 3 2 3 5 6 5 5 5 6 5 4
Wind_Direction
154 150 143 138 134 132 129 128 124 122 120 115 110 108 105 104 105 105 106 106 108 109 103 99 100 100 97 94 83 79 83 88 94 97 99 107 110 100 81 50 130 102 101
140 153 145 142 138 135 134 133 130 129 126 123 121 119 115 113 114 114 113 109 108 110 108 107 106 105 102 97 90 84 82 79 82 96 104 101 113 116 95 79 96 108 103
142 149 147 146 144 140 141 139 137 135 133 130 129 128 127 124 123 121 117 114 114 114 112 110 108 110 110 105 99 86 82 74 62 60 131 121 124 130 117 106 109 110 100
142 150 148 148 146 144 144 142 142 141 140 137 137 137 136 134 132 127 123 120 119 119 119 116 117 114 111 112 108 87 57 46 21 320 270 234 178 156 130 123 117 117 125
138 144 146 143 144 145 144 145 146 146 144 142 142 141 142 141 137 134 129 128 127 128 128 125 125 122 121 121 120 106 7 354 323 298 241 223 167 162 152 141 140 153 142
138 145 145 140 142 143 145 147 148 149 149 146 147 147 148 146 144 139 134 133 136 139 144 139 138 136 134 134 141 223 314 325 322 309 318 186 161 159 170 167 151 157 166
137 140 146 145 148 148 151 153 151 153 153 151 151 152 153 153 150 144 140 142 145 147 152 149 150 147 146 151 167 221 291 313 314 299 311 217 150 162 173 173 171 172 179
137 143 149 148 151 151 153 155 154 155 157 154 155 157 157 155 153 152 151 152 155 153 161 158 157 159 159 168 186 216 262 285 305 302 281 241 186 168 175 173 179 188 200
128 127 131 142 143 152 153 154 153 154 158 156 156 158 158 158 159 159 157 160 162 161 166 171 167 177 177 189 201 215 237 257 270 278 296 180 205 175 179 178 184 193 210
127 134 142 146 148 146 153 157 155 156 159 160 159 158 157 161 163 166 166 169 171 173 179 182 181 191 195 204 214 220 229 239 243 258 268 222 200 199 188 186 192 202 211
134 134 138 142 145 145 147 159 156 158 159 161 161 161 156 157 167 176 179 184 185 189 190 193 192 202 208 217 225 230 237 231 237 243 245 254 195 199 195 191 195 205 218
159 150 159 172 167 155 158 163 152 164 160 163 164 166 165 173 177 183 190 197 197 198 201 203 204 207 215 213 232 236 226 222 236 254 245 249 198 202 199 197 200 209 217
313 190 168 164 172 172 147 156 162 165 168 175 177 177 183 189 192 194 188 192 188 205 203 211 210 209 213 211 231 221 216 206 226 247 255 245 203 204 202 205 205 214 222
16 323 209 168 167 182 151 162 168 175 181 184 193 179 184 190 194 202 188 186 191 197 205 202 202 210 219 224 228 230 208 199 218 232 237 213 199 213 215 216 214 216 221
315 331 79 139 187 175 160 169 171 177 180 183 182 189 187 202 203 199 189 191 197 201 203 212 210 210 210 219 235 227 210 213 222 231 253 200 198 209 218 220 220 220 224
204 238 312 84 63 47 209 164 174 164 182 187 197 197 196 203 218 200 187 191 201 201 207 209 214 212 216 218 234 233 237 235 237 235 231 240 218 219 226 225 226 228 227
159 156 215 203 100 97 94 25 303 189 185 197 196 197 197 198 205 217 207 213 200 195 193 210 230 203 177 197 217 229 260 306 296 278 257 254 254 239 233 231 232 237 238
155 171 180 195 157 122 117 104 84 337 291 208 196 189 193 197 194 199 206 211 228 234 215 187 24 40 29 356 335 328 295 270 274 288 276 251 254 260 258 250 245 237 241
152 157 162 174 204 140 47 87 71 324 342 277 197 186 190 197 203 183 182 223 259 51 85 84 49 358 302 296 211 263 248 234 255 300 314 322 314 293 281 272 257 248 244
153 159 163 150 169 160 151 45 58 45 338 267 221 176 184 192 193 175 186 204 162 129 131 102 130 221 226 227 218 248 291 299 320 302 311 332 310 310 319 331 307 286 263
137 151 157 141 166 150 117 201 196 88 295 299 297 189 184 175 152 161 242 227 199 177 151 193 183 198 205 222 43 356 324 294 280 284 282 298 309 303 302 302 296 282 128
161 154 154 161 169 183 184 146 95 116 241 237 271 222 163 133 137 133 258 247 247 185 112 225 195 195 230 62 142 122 305 327 320 272 278 285 308 315 310 307 299 296 254
158 161 159 157 170 175 165 154 123 143 140 273 251 296 96 143 155 165 222 221 205 177 204 222 184 177 186 250 156 154 138 221 289 285 276 268 275 277 285 293 296 288 272
178 161 152 157 149 165 169 167 186 197 174 180 186 168 156 163 189 183 193 200 179 161 184 208 181 186 147 210 269 208 204 163 210 313 307 281 274 273 270 283 274 295 289
172 159 164 143 137 143 127 81 108 122 346 71 291 176 183 181 193 180 194 156 167 195 206 210 200 195 180 176 194 221 235 227 201 181 252 280 323 274 267 260 271 262 297
64 113 122 105 115 123 122 103 79 55 77 55 54 55 50 71 46 166 235 174 172 177 190 205 191 197 215 209 215 208 186 195 247 231 270 264 244 249 254 264 259 259 255